Terminal Aerodrome Forecast
Issued by NWS Newport/Morehead City, NC

Home | Current Version | Previous Version | Graphics & Text | Print | Product List | Glossary On
Versions: 1 2 3 4 5 6 7 8 9 10 11 12 13 14
408
FTUS42 KMHX 181153
TAFEWN
TAF
KEWN 181153Z 1812/1912 02008KT P6SM OVC007
     FM181500 01010KT P6SM OVC020
     FM181800 01012G21KT P6SM BKN040
     FM190700 33009KT P6SM BKN008=

USA.gov is the U.S. government's official web portal to all federal, state and local government web resources and services.